Regional Weather Roundup
Issued by NWS

Home | Current Version | Previous Version | Text Only | Print | Product List | Glossary Off
Versions: 1 2 3 4 5 6 7 8 9 10 11 12 13 14 15 16 17 18 19 20 21 22 23 24 25 26 27 28 29 30 31 32 33 34 35 36 37 38 39 40 41 42 43 44 45 46 47 48 49 50

000
ASUS43 KMKX 252021
RWRWI

WISCONSIN REGIONAL WEATHER ROUNDUP
NATIONAL WEATHER SERVICE MILWAUKEE/SULLIVAN WI
200 PM CST SAT FEB 25 2017

NOTE: "FAIR" INDICATES FEW OR NO CLOUDS BELOW 12,000 FEET WITH NO
SIGNIFICANT WEATHER AND/OR OBSTRUCTIONS TO VISIBILITY.

WIZ001-002-006>008-014>016-023>028-252100-
NORTHWEST WISCONSIN

CITY           SKY/WX    TMP DP  RH WIND       PRES   REMARKS
SUPERIOR ARPT  PTSUNNY   28   9  45 W10G20    29.84S WCI  18
ASHLAND        SUNNY     25   8  48 W18G26    29.81S WCI  11
HAYWARD        CLOUDY    26   4  38 NW8G17    29.81F WCI  18
SIREN          MOSUNNY   29   8  40 W8        29.86S WCI  21
CUMBERLAND     MOSUNNY   28   9  43 NW14G21   29.84S WCI  17
RICE LAKE      SUNNY     27   7  42 CALM      29.87S
CHETEK         SUNNY     27   7  43 NW7       29.86S WCI  19
LADYSMITH      SUNNY     26   5  41 NW15G23   29.83S WCI  13
EAU CLAIRE     SUNNY     25   7  46 W10       29.88S WCI  15
MENOMONIE      SUNNY     28   8  43 W12       29.89F WCI  17
NEW RICHMOND   SUNNY     31   9  40 W14       29.88F WCI  20
OSCEOLA        SUNNY     32  12  43 W13       29.91F WCI  22
$$

WIZ003>005-009-010-017-018-252100-
NORTH CENTRAL WISCONSIN

CITY           SKY/WX    TMP DP  RH WIND       PRES   REMARKS
MANITOWISH WTR FLURRIES  17  10  74 NW9G17    29.73S WCI   5
ARBOR VITAE    PTSUNNY   19  11  70 NW12G18     N/A  WCI   7
WOODRUFF       PTSUNNY   19  11  70 NW12G18     N/A  WCI   7
RHINELANDER    CLOUDY    18   8  65 W10G21    29.74R WCI   6
EAGLE RIVER    LGT SNOW  17   8  70 W12G23    29.72R WCI   4
LAND O LAKES   LGT SNOW  17  11  75 NW8G21    29.72R WCI   7
PHILLIPS       SUNNY     22   6  49 NW7       29.76S WCI  13
TOMAHAWK       PTSUNNY   19   8  60 NW10      29.77S WCI   8
MEDFORD        SUNNY     20   6  53 W12G17    29.79R WCI   8
MERRILL        NOT AVBL
$$

WIZ029-030-035-036-043>047-252100-
CENTRAL WISCONSIN

CITY           SKY/WX    TMP DP  RH WIND       PRES   REMARKS
WAUSAU         MOSUNNY   18   7  62 NW16      29.79R WCI   3
MOSINEE        MOSUNNY   19   9  63 W16G24    29.81R WCI   5
MARSHFIELD     SUNNY     20   5  52 W14       29.81R WCI   7
STEVENS POINT  PTSUNNY   18   6  61 W13G22    29.83R WCI   4
WAUPACA        MOSUNNY   24  11  57 W15G22    29.84R WCI  11
WAUTOMA        CLOUDY    21  11  65 W17G26    29.86R WCI   7
WISC RAPIDS    MOSUNNY   22   8  55 NW12      29.85R WCI  10
CAMP DOUGLAS   MOSUNNY   23   7  50 W15G23    29.88R WCI  10
$$

WIZ011>013-019>022-031-037>040-048>050-252100-
NORTHEAST WISCONSIN

CITY           SKY/WX    TMP DP  RH WIND       PRES   REMARKS
ANTIGO         CLOUDY    17   9  68 W16G22    29.75R WCI   2
SHAWANO        CLOUDY    25  12  59 CALM      29.79R
OCONTO         CLOUDY    24  12  59 W17G30    29.76R WCI  11
STURGEON BAY   CLOUDY    25  16  68 W14G28    29.74R WCI  13
GREEN BAY      CLOUDY    23  15  71 W23G29    29.79R WCI   7
MANITOWOC      PTSUNNY   23  13  65 W20G25    29.78R WCI   8
APPLETON       PTSUNNY   21  10  63 W20       29.79R WCI   6
CLINTONVILLE   CLOUDY    23  12  63 W16G22    29.81R WCI  10
OSHKOSH        MOSUNNY   21  11  65 NW21      29.82R WCI   5
$$

WIZ032>034-041-042-053>061-252100-
SOUTHWEST WISCONSIN

CITY           SKY/WX    TMP DP  RH WIND       PRES   REMARKS
LA CROSSE      SUNNY     27  10  49 NW13G22   29.94S WCI  16
SPARTA         SUNNY     25   9  51 W13G20    29.91R WCI  13
VIROQUA        SUNNY     22   9  57 W15       29.89S WCI   9
BOSCOBEL       SUNNY     26   9  48 W14G21    29.95R WCI  14
PRAIRIE DU CHI SUNNY     25   9  50 NW13G22   29.97R WCI  14
PLATTEVILLE    SUNNY     24  15  69 W6        29.93R WCI  17
$$

WIZ056-057-062-063-064-067-068-252100-
SOUTH CENTRAL WISCONSIN

CITY           SKY/WX    TMP DP  RH WIND       PRES   REMARKS
REEDSBURG      SUNNY     23   9  55 NW13G20   29.89R WCI  11
BARABOO/DELLS  MOSUNNY   22  11  60 W10G17    29.87R WCI  12
LONE ROCK      SUNNY     25  12  58 W18G24    29.92R WCI  11
MINERAL POINT  SUNNY     25  14  63 W6        29.89R WCI  18
MADISON        PTSUNNY   23  13  65 NW12G20   29.88R WCI  12
MIDDLETON      CLOUDY    25  16  69 NW10      29.88R WCI  15
WATERTOWN      CLOUDY    20  12  73 W13G23    29.87R WCI   7
MONROE         PTSUNNY   27  16  63 W18G25    29.88R WCI  13
JANESVILLE     PTSUNNY   27  16  63 NW16G24   29.88R WCI  14
$$

WIZ051-052-058>065-066-070>072-252100-
SOUTHEAST WISCONSIN

CITY           SKY/WX    TMP DP  RH WIND       PRES   REMARKS
MILWAUKEE      FLURRIES  22  10  60 W13G24    29.86R WCI  10
WAUKESHA       CLOUDY    18   9  68 W18G26    29.86R WCI   2
MILWAUKEE/TIMM FLURRIES  19   9  63 W14G25    29.85R WCI   6
RACINE         CLOUDY    21   9  59 W14G24    29.88R WCI   8
KENOSHA        LGT SNOW  22  13  68 W20       29.87R WCI   7
FOND DU LAC    CLOUDY    21  10  62 W16G25    29.82R WCI   7
SHEBOYGAN      LGT SNOW  21  12  68 W18G31    29.80R WCI   6
WEST BEND      FLURRIES  19  14  79 W9        29.82R WCI   9
JUNEAU         CLOUDY    19  12  74 W6        29.86R WCI  11
$$

LSZ147-162-252100-
LAKE SUPERIOR

STATION/POSITION TIME  TEMP    WIND        PRES    WAVE
                       AIR SEA DIR/SP/G            HT/PER
                 (UTC) (F)     (DEG/KT/KT) (MB)    (FT/S)
DEVILS ISLAND    2000   24     280/ 18/ 21 1009.4F
PORT WING        1940   23     260/ 12/ 19 1010.2F
SAXON HARBOR     1940   24     290/ 16/ 23 1009.1F
$$

LMZ867-665-643>646-252100-
LAKE MICHIGAN

STATION/POSITION TIME  TEMP    WIND        PRES    WAVE
                       AIR SEA DIR/SP/G            HT/PER
                 (UTC) (F)     (DEG/KT/KT) (MB)    (FT/S)
CHAMBERS ISLAND  1940   27      CALM  /  2 1005.4R
NORTHPORT PIER   2014   26     290/  1/  2 1005.8R
SISTER BAY       1935   26        CALM       N/A
KEWAUNEE LAKESHO 1954   24     300/ 18/ 22 1006.8R
SHEBOYGAN LAKESH 2000   21     290/ 17/ 22 1010.2R
PORT WASHINGTON  1930   22     290/ 11/ 20 1010.8R
MILWAUKEE LAKESH 1950   20     270/ 17/ 21   N/A
KENOSHA   LAKESH 2000   20     300/ 18/ 23 1011.9
$$

TC  - TEMPERATURE IN CELSIUS
VSB - VISIBILITY IN STATUTE MILES
WCI - WIND CHILL INDEX
HX  - HEAT INDEX





USA.gov is the U.S. government's official web portal to all federal, state and local government web resources and services.